sat.trackr.live / text

‹ back to catalog

GEESAT-2 05

NORAD 58909 · 2024-023E

PAYLOAD ACTIVE UNKNOWN

§ Identity

Operator
Country
PRC
Launch date
2024-02-02
Launch site
XICLF
Launch vehicle
Mass (kg)
RCS (m²)

External: N2YO · Heavens-Above · Gunter

§ Orbital elements

Epoch: 2026-05-25T04:24:00.194112Z

Period
97.09 min
Inclination
50.0045°
Eccentricity
0.0011424
Mean motion
14.83165138 rev/d
Perigee alt
611.4 km
Apogee alt
627.3 km
Semi-major
6,997.5 km
B*
2.0423e-4
RAAN
100.8607°
Arg perigee
335.1410°
Mean anomaly
24.8977°
Rev number
12,550

§ Raw data

GEESAT-2 051 58909U 24023E   26145.18333558  .00001458  00000+0  20423-3 0  99972 58909  50.0045 100.8607 0011424 335.1410  24.8977 14.83165138125508

JSON: /api/v1/satellites/58909 · /tle

For live sub-satellite position, see the globe view (requires WebGL).

§ Visibility from observer

Set your observer location to see the next 7 days of passes ≥ 10°. The values pass through the URL so the page stays shareable.

No JS? Fill the form by hand. The geolocation button needs JavaScript.